Tracking 29892 objects as of 21-Nov-2024
HD Live streaming from Space Station
objects crossing your sky now

CZ-6A DEB

Track CZ-6A DEB now!
10-day predictions


NORAD ID: 54469
Int'l Code: 2022-151GV
Perigee: 379.8 km
Apogee: 395.5 km
Inclination: 98.6 °
Period: 92.2 minutes
Semi major axis: 6758 km
RCS: Unknown
Launch date: November 11, 2022
Source: People's Republic of China (PRC)
Launch site: Taiyaun Space Center, China (TSC)

Note: This is SATELLITE DEBRIS
Your satellite tracking list
Your tracking list is empty




NASA's NSSDC Master Catalog

Two Line Element Set (TLE):
1 54469U 22151GV  24325.14834715  .01522849  00000-0  15288-1 0  9994
2 54469  98.6377  32.7853 0011581 117.6358 242.6073 15.62469254 35854
Source of the keplerian elements: AFSPC